Regional Weather Roundup
Issued by NWS

Home | Current Version | Previous Version | Graphics & Text | Print | Product List | Glossary On
Versions: 1 2 3 4 5 6 7 8 9 10 11 12 13 14 15 16 17 18 19 20 21 22 23 24 25 26 27 28 29 30 31 32 33 34 35 36 37 38 39 40 41 42 43 44 45 46 47 48 49 50
000
ASUS43 KMPX 251401
RWRMN
WEATHER ROUNDUP FOR MINNESOTA
NATIONAL WEATHER SERVICE TWIN CITIES/CHANHASSEN MN
800 AM CST TUE NOV 25 2014


NOTE: "FAIR" INDICATES FEW OR NO CLOUDS BELOW 12,000 FEET WITH NO
SIGNIFICANT WEATHER AND/OR OBSTRUCTIONS TO VISIBILITY. N/A MEANS
CURRENT SKY AND/OR WEATHER CONDITIONS ARE NOT AVAILABLE.

MNZ060>063-068>070-251500-
   Twin Cities Metro

CITY           SKY/WX    TMP DP  RH WIND       PRES   REMARKS
TWIN CITIES    CLEAR     11   7  84 W5        30.04R WCI   3
ST PAUL        CLEAR     12   7  80 W5        30.05R WCI   4
CRYSTAL        CLEAR     11   6  81 SW3       30.02R
BLAINE         CLEAR     12   9  85 SW3       30.02R
LAKEVILLE      CLEAR      9   7  92 W6        30.03R WCI  -1
EDEN PRAIRIE   CLEAR     10   6  84 W3        30.03R
SOUTH ST PAUL  CLEAR     10   7  86 CALM      30.04R
LAKE ELMO      FAIR      12   9  85 CALM      30.03R
$$
MNZ001>005-007-008-013>017-022>024-027-028-251500-
   Northwest Minnesota

CITY           SKY/WX    TMP DP  RH WIND       PRES   REMARKS
BEMIDJI        CLOUDY     8   4  84 CALM      29.93R
HALLOCK        CLEAR      5   1  85 CALM      29.95S
ROSEAU         CLOUDY     3   0  85 SW6       29.93S WCI  -8
WARROAD        CLOUDY     5   0  78 S6        29.92F WCI  -6
THIEF RVR FALL PTCLDY    10   7  85 S6        29.94R WCI   1
CROOKSTON      CLEAR     12   7  79 S6        29.97S WCI   3
FOSSTON        CLOUDY    10   7  85 S6        29.95R WCI   1
DETROIT LAKES  CLOUDY    16  10  79 S5        29.94R WCI   9
MOORHEAD       CLOUDY    18  14  86 S7        29.96S WCI   8
PARK RAPIDS    CLOUDY    10   6  84 CALM      29.93S
MAHNOMEN       CLOUDY    13   8  81 S3        29.94R
$$
MNZ006-009>011-018-025>026-251500-
   North Central Minnesota

CITY           SKY/WX    TMP DP  RH WIND       PRES   REMARKS
BAUDETTE       CLEAR     -2  -7  79 CALM      29.92S
FLAG ISLAND    CLOUDY     1  -2  85 CALM      29.92R
INTL FALLS     MOCLDY    -2  -7  79 SW5       29.92S WCI -12
WASKISH        CLEAR     -2  -6  84 CALM      29.94R
BIG FORK       CLEAR     -4  -8  84 CALM      29.93S
LONGVILLE      CLOUDY     3   1  92 CALM      29.94S
GRAND RAPIDS   CLOUDY     3   1  92 SW3       29.92S
CRANE LAKE     LGT SNOW   1   0  92 CALM      29.95S VSB 3/4
ORR            CLEAR      1  -2  85 CALM      29.90R
COOK           LGT SNOW   5   3  92 W3        29.92S
WALKER         CLOUDY     6   2  85 CALM      29.93S
$$
MNZ012-019>021-037-251500-
   Northeast Minnesota

CITY           SKY/WX    TMP DP  RH WIND       PRES   REMARKS
DULUTH         PTCLDY     9   4  80 NW9       29.91R WCI  -4
ELY            LGT SNOW   0  -4  85 CALM      29.91R
HIBBING        FAIR      -1  -6  79 CALM      29.93R
EVELETH        FLURRIES   3   1  92 W3        29.94R
DULUTH HARBOR  CLEAR     14   9  79 CALM      30.00R
TWO HARBORS    FLURRIES  10   7  85 CALM      29.92R
SILVER BAY     CLEAR      9   3  78 CALM      29.91R
GRAND MARAIS     N/A      7   2  80 NW3       29.95R
G MARAIS ARPRT CLEAR      3   0  85 NW6       29.82R WCI  -8
$$
MNZ029>031-032-039>041-046>048-054>057-064-251500-
   West Central Minnesota

CITY           SKY/WX    TMP DP  RH WIND       PRES   REMARKS
FERGUS FALLS   CLOUDY    16   7  67 S5        30.00R WCI   9
WHEATON        CLOUDY    18   9  68 SE6       29.99S WCI   9
MORRIS           N/A     12   9  85 S7        29.97R WCI   2
ALEXANDRIA     CLOUDY    13   6  74 S5        29.96S WCI   5
ELBOW LAKE       N/A     14   8  76 S6        29.96S WCI   5
WADENA         CLOUDY    12   7  79 CALM      29.94S
GLENWOOD       MOCLDY    12   7  79 S3        29.97S
APPLETON       PTCLDY    14   7  73 S3        30.00R
BENSON         CLOUDY    10   7  85 S5        29.99S WCI   2
ORTONVILLE     CLOUDY    16   9  73 S6        29.97S WCI   7
MADISON        PTCLDY    19  12  73 S6        30.00S WCI  11
WILLMAR        CLOUDY     9   3  78 CALM      30.01S
$$
MNZ033>034-036-042>043-049>051-058-059-251500-
   Central Minnesota

CITY           SKY/WX    TMP DP  RH WIND       PRES   REMARKS
ST CLOUD       CLOUDY    10   4  76 CALM      30.01R
SAUK CENTRE    CLOUDY    11   5  76 SW3       29.97F
PAYNESVILLE    CLOUDY     7   3  85 CALM      29.99F
AITKIN         MOCLDY     9   1  72 CALM      29.95S
PINE RIVER     CLOUDY     7   3  85 CALM      29.99R
BRAINERD       CLOUDY     6   4  91 S3        29.97S
STAPLES        CLOUDY    10   7  85 CALM      29.95S
LONG PRAIRIE   CLOUDY    12   7  79 S3        29.97S
LITTLE FALLS   CLOUDY    10   5  79 CALM      29.98F
LITCHFIELD     CLEAR      9   7  92 CALM      30.01S
BUFFALO        CLEAR      8   5  86 CALM      30.03R
MAPLE LAKE     CLEAR      8   6  89 CALM      30.02R
$$
MNZ037-044-045-052-053-251500-
   East Central Minnesota

CITY           SKY/WX    TMP DP  RH WIND       PRES   REMARKS
PRINCETON      CLEAR      9   5  85 CALM      30.00R
MORA           CLEAR      9   5  85 W3        30.01R
CAMBRIDGE      CLEAR      7   0  72 CALM      30.00R
RUSH CITY      CLEAR      8   6  89 CALM      30.01R
MOOSE LAKE     CLEAR      9   3  78 CALM      29.96R
HINCKLEY       FAIR      10   9  92 CALM      29.99R
CLOQUET        CLEAR      9   5  85 NW7       29.94R WCI  -3
MCGREGOR       CLEAR      9   5  85 CALM      29.97R
$$
MNZ071>073-080-081-089-090-097-098-251500-
   Southwest Minnesota

CITY           SKY/WX    TMP DP  RH WIND       PRES   REMARKS
MONTEVIDEO     CLOUDY    14   9  79 SW5       30.01F WCI   6
GRANITE FALLS  MOCLDY    11   7  83 S5        30.03S WCI   3
CANBY          CLOUDY    20   7  55 SW5       30.00S WCI  14
MARSHALL       PTCLDY    14   3  62 S5        30.00S WCI   6
REDWOOD FALLS  CLEAR     11   4  73 SW5       30.03F WCI   3
OLIVIA         CLEAR     10   5  79 CALM      30.01F
PIPESTONE      MOCLDY    12   9  85 SW3       29.99S
WINDOM           N/A     12   7  79 SW5       30.02R WCI   4
WORTHINGTON    CLEAR     10   5  79 SW10      30.01F WCI  -3
JACKSON        CLEAR     14   5  67 W7        30.02S WCI   4
TRACY          CLEAR     15   7  70 SW8       30.00F WCI   4
SLAYTON        CLEAR     13   6  72 SW7       30.00S WCI   3
$$
MNZ065>067-074>077-082>085-091>093-251500-
   South Central Minnesota

CITY           SKY/WX    TMP DP  RH WIND       PRES   REMARKS
MANKATO        CLEAR     10   3  72 W6        30.04R WCI   1
NEW ULM        CLEAR      5   1  85 W3        30.04S
ST JAMES       CLEAR     10   5  79 W3        30.05R
FAIRMONT       PTCLDY    12   5  73 W6        30.04R WCI   3
GLENCOE        CLEAR     10   7  87 SW3       30.03S
FARIBAULT      CLEAR      9   5  85 SW3       30.04R
OWATONNA       CLEAR      9   3  78 SW5       30.02S WCI   0
WASECA         CLEAR      9   3  78 SW3       30.05R
ALBERT LEA     CLEAR      9   7  92 W3        30.02S
$$
MNZ078>079-086>088-094>096-251500-
   Southeast Minnesota

CITY           SKY/WX    TMP DP  RH WIND       PRES   REMARKS
ROCHESTER      CLEAR      8   5  87 W8        30.01R WCI  -4
RED WING       LGT SNOW  16   9  73 W5        30.03S WCI   9
STANTON        CLEAR      8   5  84 S3        30.03R
DODGE CENTER   PTCLDY     7   5  92 SW6       30.00S WCI  -3
WINONA         CLOUDY    19  14  79 W7        30.05R WCI  10
AUSTIN         CLEAR     10   7  85 W5        30.03R WCI   2
PRESTON        FAIR       7   4  89 W6        30.02R WCI  -3
$$
ABBREVIATIONS USED IN REMARKS
   TC - TEMPERATURES IN CELSIUS
  WCI - WIND CHILL INDEX
   HX - HEAT INDEX
  VSB - VISIBILITY
$$



USA.gov is the U.S. government's official web portal to all federal, state and local government web resources and services.